カタログに戻る

STARLINK-35020

運用中通信VLEO
NORAD 65340·PAYLOAD·🇺🇸 United States

打ち上げ Aug 27, 2025 から Cape Canaveral Space Force Station

Loading…

次のパス (今後24時間)

TLE

最新Source: CelesTrak SupGP

元期: Sep 14, 2026, 22:43 UTC

1 65340C 25189T   26257.94701389  .00017301  00000+0  55648-3 0  2575
2 65340  53.1581  45.8868 0001178  84.7252  69.3260 15.31685856    12

AllMySatでSTARLINK-35020をリアルタイム追跡

Download on the App Store